Wind_Speed
18 19 20 19 19 18 17 17 16 14 13 13 12 11 10 9 8 7 5 4 3 2 1 1 1 1 1 2 2 3 3 3 4 5 6 6 7 8 8 8 8 8 8
18 18 18 19 18 18 17 17 16 15 14 13 13 12 10 10 9 8 7 5 4 3 2 2 1 1 2 2 3 4 4 5 5 6 6 7 7 7 8 9 9 9 9
16 17 17 18 18 18 17 16 15 14 14 13 13 12 11 10 9 8 7 6 4 3 2 2 2 2 2 3 3 3 4 4 5 6 6 6 7 7 8 9 9 10 11
15 15 16 17 17 17 17 16 16 15 14 13 13 13 12 11 10 9 8 8 6 4 3 3 2 2 3 4 4 4 4 5 5 6 6 6 6 7 8 8 10 11 12
14 14 15 16 16 17 17 16 16 15 14 13 12 12 12 11 11 10 9 9 7 6 5 4 3 3 4 4 5 5 5 5 6 6 6 7 7 8 8 9 10 11 12
12 13 13 14 15 16 16 16 15 15 14 13 12 12 11 11 10 10 10 10 9 7 6 5 4 4 5 6 6 7 7 7 7 7 8 8 8 9 9 10 10 11 12
11 12 13 13 13 14 15 15 15 15 14 14 13 12 12 11 11 11 11 11 10 9 7 6 6 5 5 6 7 8 8 8 8 8 8 9 9 10 10 10 11 12 14
10 11 12 12 12 13 14 14 14 14 14 14 14 13 13 12 12 12 11 11 10 10 9 7 7 6 6 6 7 7 7 8 8 8 9 9 10 11 11 11 12 13 14
9 9 10 11 11 12 12 12 13 14 14 14 14 14 14 14 14 13 12 11 11 10 9 9 8 8 8 8 7 7 8 8 9 9 10 11 11 12 12 12 13 14 15
8 9 9 9 10 11 11 11 12 13 14 14 14 15 15 14 15 14 13 12 11 11 10 9 9 9 9 9 9 9 9 9 10 11 12 12 12 13 13 14 14 16 17
8 8 8 9 9 11 11 10 11 12 13 14 14 15 16 16 15 15 14 13 12 12 11 10 10 9 9 10 10 10 10 11 11 12 12 13 13 14 14 15 16 16 17
7 8 8 8 9 10 10 10 11 12 13 14 15 16 17 17 17 16 15 14 13 12 11 11 10 10 11 11 11 11 11 12 12 13 13 14 14 14 15 16 16 17 18
8 8 8 8 9 10 10 10 10 12 13 14 15 16 17 18 18 17 16 14 13 13 12 12 11 12 12 13 12 12 12 12 12 13 14 14 15 16 16 17 17 18 18
9 9 9 9 10 10 10 11 11 12 13 14 15 16 17 18 19 19 18 16 14 14 14 14 13 13 13 14 14 14 13 13 13 14 14 15 15 16 17 17 18 18 19
10 10 11 10 11 11 11 11 12 13 14 15 17 18 18 19 20 20 20 18 15 15 15 14 13 13 14 15 15 14 14 14 15 15 15 16 16 17 17 18 18 19 20
12 12 12 12 13 13 12 12 13 14 15 17 18 18 19 20 21 21 20 19 17 16 15 15 15 15 15 16 16 15 15 16 16 17 17 18 18 18 18 18 19 20 21
14 14 14 14 14 14 14 15 15 15 16 17 18 19 19 20 21 21 20 19 18 17 16 16 16 17 17 17 17 16 16 17 17 18 19 19 19 19 19 20 21 22 22
16 16 16 16 17 18 17 17 17 17 17 18 19 20 20 20 21 21 21 20 20 19 19 18 18 18 18 17 17 17 18 18 18 19 19 20 20 21 21 22 23 23 23
19 19 19 19 20 19 19 19 20 19 18 19 20 20 21 21 21 22 21 21 21 21 20 20 20 19 19 19 18 19 19 20 20 20 21 21 21 22 22 23 24 24 25
23 22 22 21 21 22 21 21 23 21 20 21 21 22 22 22 23 23 23 23 22 22 22 21 21 20 20 20 20 20 20 21 21 22 22 22 22 23 23 24 24 25 26
26 25 24 24 23 23 23 23 23 22 22 22 22 23 23 24 24 25 26 25 24 23 23 22 22 21 22 21 21 21 21 22 23 24 24 24 24 24 24 25 25 26 27
27 27 26 25 24 24 24 24 23 24 24 24 24 25 25 25 26 26 27 27 27 25 25 24 23 23 23 23 23 23 23 24 24 24 25 25 25 26 26 26 26 26 27
27 27 26 26 25 25 25 25 25 25 25 26 26 27 27 27 27 27 27 28 27 27 27 26 24 24 24 24 24 24 25 26 26 26 26 26 27 27 27 27 27 28 28
29 29 28 28 28 27 27 26 27 27 27 28 28 28 28 28 28 28 28 28 28 27 26 27 27 27 26 26 26 26 27 27 27 27 26 27 27 27 28 28 28 29 29
29 30 29 29 29 29 29 29 29 29 29 29 30 30 30 30 29 30 30 29 29 29 28 28 28 27 27 27 28 28 27 27 27 27 27 27 28 28 28 29 29 29 29
31 31 31 32 32 31 31 31 31 31 31 31 32 32 32 31 31 31 31 30 29 29 29 28 28 28 28 28 28 28 28 28 28 28 28 28 28 29 29 29 30 30 30
Wind_Direction
37 37 37 36 35 37 39 40 39 40 41 41 41 43 44 42 39 33 29 31 32 24 9 356 333 295 271 263 265 271 280 284 291 289 282 276 271 270 267 266 270 273 275
36 36 37 38 39 39 39 37 38 41 42 43 43 42 42 39 35 30 30 26 23 14 358 342 318 309 290 278 283 280 283 285 288 293 289 278 278 277 270 264 267 271 274
37 36 37 36 36 37 37 36 36 39 40 41 41 40 37 35 32 30 22 15 10 7 4 347 319 296 284 280 285 283 285 288 288 292 289 287 282 282 280 271 269 270 272
36 36 37 36 36 35 35 34 36 38 38 39 40 39 37 34 32 29 24 18 16 8 353 343 322 297 281 275 282 285 292 293 291 294 294 296 294 286 287 285 277 276 274
32 34 36 35 33 32 33 34 35 36 37 38 39 38 36 33 30 27 21 14 12 7 355 346 331 305 291 284 281 280 285 287 289 293 294 295 296 294 293 293 287 284 284
31 31 34 34 31 29 31 33 33 34 34 35 34 33 31 28 25 21 16 9 9 5 356 346 328 308 297 293 286 282 284 284 288 291 292 293 294 296 295 293 291 290 290
31 30 29 30 29 28 29 32 31 31 31 32 32 29 26 23 19 13 8 6 6 360 356 349 337 323 311 305 295 291 286 286 289 291 294 294 297 297 297 295 294 294 292
24 27 26 25 26 25 27 29 28 28 28 29 28 25 21 18 13 8 5 4 1 356 352 346 340 328 312 311 302 298 292 291 290 292 294 294 296 298 298 296 296 296 295
11 19 19 16 19 20 21 23 23 23 25 26 24 21 16 13 9 6 4 360 357 354 351 346 340 331 319 311 307 295 291 291 290 292 292 294 297 297 298 298 297 296 297
0 8 9 9 12 15 16 18 17 17 18 18 17 14 10 6 3 1 359 356 352 350 347 343 338 334 328 319 310 306 299 295 292 291 292 293 295 296 296 297 298 297 296
351 357 359 360 2 7 8 12 15 12 10 11 11 9 6 3 359 355 353 350 348 344 342 341 338 333 329 326 317 306 299 292 290 291 291 293 295 297 297 298 299 299 299
339 342 345 351 354 359 2 4 7 4 3 4 5 5 3 1 358 354 349 345 342 341 339 338 335 333 330 326 322 314 307 300 296 294 293 293 296 299 300 301 300 299 299
321 327 332 339 343 348 353 356 357 357 358 359 359 358 358 355 352 349 343 341 337 334 332 329 328 327 326 323 323 320 315 309 305 301 297 295 296 298 301 303 303 302 301
312 316 326 327 329 334 340 344 346 348 351 352 352 350 350 351 350 347 343 338 336 331 329 327 326 325 324 323 323 323 318 316 313 310 306 302 302 300 302 303 303 303 302
303 310 316 318 320 322 328 335 338 339 341 343 343 343 344 344 345 344 343 340 333 330 329 328 326 324 323 323 322 321 319 315 313 312 309 306 305 303 304 305 304 303 303
292 300 306 307 312 312 316 323 328 330 332 335 338 339 340 340 342 342 342 341 338 331 328 326 326 325 323 321 321 319 316 315 313 311 309 307 305 305 304 304 303 303 303
284 292 297 297 304 306 306 310 315 320 324 327 331 333 333 335 337 339 339 338 338 337 330 326 324 323 321 320 320 320 317 314 312 311 310 309 307 305 304 304 304 304 304
281 288 293 295 300 301 301 301 305 310 314 318 321 324 327 330 332 334 334 333 332 330 329 326 322 321 320 319 317 315 315 313 312 312 312 310 308 306 306 306 306 306 305
279 284 288 291 294 294 297 300 301 302 304 308 311 315 320 322 324 328 329 328 328 325 323 323 322 321 319 317 315 313 312 312 312 312 311 309 308 308 308 306 307 307 307
277 281 284 285 287 290 292 295 298 296 297 301 305 309 312 316 318 321 322 323 323 322 319 318 318 318 317 315 314 313 312 311 310 310 311 310 309 307 308 308 307 307 307
275 276 277 280 284 288 292 293 297 299 297 298 300 305 308 311 313 315 316 318 319 319 318 315 314 313 313 311 311 311 311 310 309 309 309 310 310 309 308 308 307 307 307
273 274 274 276 282 287 290 290 292 295 297 299 301 302 306 308 311 312 313 315 315 314 314 312 310 310 310 309 309 309 309 309 308 309 308 309 309 309 308 307 307 308 309
270 273 274 276 279 284 287 288 290 293 296 296 298 299 303 306 306 309 311 311 312 311 310 308 308 309 309 308 307 307 307 307 308 308 307 307 307 307 308 307 307 308 309
268 271 274 275 278 282 284 285 287 290 293 294 296 297 299 301 303 305 307 309 310 309 306 305 306 307 307 306 306 306 306 306 306 306 306 306 306 306 307 306 306 307 308
266 269 273 277 280 281 282 283 286 290 291 293 294 295 295 297 299 301 304 306 306 305 304 304 303 305 305 306 305 305 306 305 305 305 305 305 305 305 306 305 305 306 307
266 269 272 275 278 280 281 283 285 288 289 290 291 291 293 295 296 298 300 302 302 303 302 302 302 303 303 303 303 304 305 305 305 304 303 303 303 305 305 305 305 306 307
Height
5933 5930 5927 5924 5922 5919 5917 5915 5913 5911 5909 5907 5905 5904 5902 5901 5900 5899 5898 5898 5897 5897 5897 5897 5896 5896 5896 5896 5896 5896 5896 5895 5895 5894 5893 5893 5892 5892 5891 5891 5891 5890 5890
5934 5932 5929 5926 5924 5921 5919 5917 5915 5913 5911 5909 5907 5905 5904 5902 5901 5900 5899 5898 5897 5897 5896 5896 5896 5896 5895 5895 5895 5895 5894 5894 5893 5893 5892 5891 5892 5890 5890 5889 5889 5888 5888
5936 5933 5931 5928 5926 5923 5921 5919 5917 5914 5912 5910 5908 5907 5905 5903 5902 5900 5899 5898 5897 5897 5896 5896 5895 5895 5894 5894 5893 5893 5893 5892 5892 5891 5890 5890 5889 5888 5888 5887 5886 5886 5885
5937 5935 5932 5930 5927 5925 5923 5921 5918 5916 5914 5911 5910 5908 5906 5904 5903 5901 5900 5899 5897 5896 5895 5895 5894 5894 5893 5893 5892 5892 5891 5891 5890 5889 5888 5888 5887 5886 5885 5885 5884 5883 5882
5938 5935 5933 5931 5929 5927 5924 5922 5920 5917 5915 5913 5911 5909 5907 5906 5904 5902 5900 5899 5897 5896 5895 5894 5893 5892 5892 5891 5891 5890 5889 5889 5888 5888 5887 5886 5885 5884 5883 5882 5882 5880 5879
5938 5936 5934 5932 5930 5928 5926 5923 5921 5919 5917 5914 5912 5910 5908 5907 5905 5903 5901 5899 5897 5895 5894 5893 5892 5891 5890 5889 5889 5888 5888 5887 5886 5885 5885 5884 5883 5882 5881 5880 5879 5877 5876
5939 5937 5934 5933 5931 5929 5927 5924 5922 5920 5918 5916 5913 5911 5909 5907 5905 5903 5901 5898 5896 5895 5893 5892 5890 5889 5888 5887 5886 5886 5885 5884 5884 5883 5882 5881 5880 5879 5878 5877 5876 5874 5873
5939 5937 5935 5933 5932 5930 5928 5926 5923 5921 5919 5917 5914 5912 5910 5908 5905 5903 5900 5898 5896 5894 5892 5890 5889 5887 5886 5885 5884 5883 5883 5882 5881 5880 5880 5879 5878 5877 5875 5874 5873 5871 5870
5938 5937 5935 5934 5932 5930 5928 5926 5924 5922 5920 5917 5915 5913 5910 5908 5905 5902 5900 5898 5895 5893 5891 5890 5888 5886 5884 5884 5882 5881 5880 5879 5878 5878 5877 5876 5875 5873 5872 5870 5869 5868 5866
5937 5936 5935 5934 5932 5931 5928 5926 5924 5922 5920 5918 5915 5913 5910 5908 5905 5902 5899 5897 5894 5892 5890 5888 5886 5885 5883 5882 5880 5879 5878 5877 5876 5875 5874 5873 5871 5870 5868 5867 5865 5864 5862
5937 5936 5935 5933 5932 5930 5928 5926 5924 5922 5920 5918 5915 5913 5910 5907 5904 5901 5898 5896 5893 5891 5889 5887 5885 5883 5881 5880 5878 5876 5875 5874 5873 5872 5871 5869 5868 5866 5864 5863 5861 5859 5857
5935 5935 5934 5932 5931 5929 5927 5926 5924 5922 5920 5918 5915 5912 5909 5906 5903 5900 5897 5894 5892 5890 5887 5885 5883 5882 5880 5878 5876 5874 5872 5871 5869 5868 5867 5866 5864 5862 5860 5858 5856 5854 5852
5933 5933 5932 5931 5930 5928 5926 5925 5923 5921 5919 5917 5914 5911 5908 5905 5902 5899 5895 5892 5890 5887 5886 5884 5881 5879 5877 5875 5873 5871 5869 5867 5866 5865 5863 5862 5860 5858 5856 5854 5852 5850 5848
5931 5930 5930 5929 5928 5927 5925 5924 5922 5920 5918 5916 5913 5910 5907 5904 5900 5897 5894 5890 5887 5885 5883 5881 5879 5877 5875 5873 5870 5868 5866 5864 5863 5861 5859 5858 5856 5854 5852 5850 5848 5846 5843
5929 5928 5928 5927 5926 5925 5924 5922 5920 5918 5916 5914 5911 5908 5905 5902 5899 5895 5891 5888 5885 5882 5880 5878 5876 5874 5872 5870 5867 5865 5863 5861 5859 5857 5856 5854 5852 5849 5847 5845 5843 5841 5838
5927 5926 5925 5924 5923 5922 5921 5919 5918 5916 5914 5912 5909 5906 5903 5900 5896 5893 5889 5885 5882 5880 5878 5875 5873 5871 5869 5866 5864 5862 5860 5857 5855 5853 5851 5849 5847 5845 5843 5841 5838 5835 5833
5923 5922 5922 5921 5920 5919 5918 5917 5915 5913 5911 5909 5906 5903 5900 5897 5894 5890 5887 5884 5880 5878 5875 5873 5870 5868 5865 5863 5860 5858 5856 5854 5851 5849 5847 5844 5842 5840 5838 5835 5833 5830 5827
5918 5918 5918 5916 5916 5915 5914 5913 5911 5909 5908 5906 5903 5900 5897 5894 5891 5887 5884 5881 5878 5875 5872 5869 5867 5864 5862 5859 5856 5854 5852 5849 5847 5844 5842 5840 5837 5835 5832 5830 5827 5824 5821
5914 5914 5914 5913 5912 5911 5909 5908 5906 5905 5903 5901 5899 5896 5893 5891 5888 5884 5881 5878 5875 5872 5869 5866 5863 5860 5857 5855 5852 5850 5847 5844 5842 5840 5837 5834 5832 5829 5826 5824 5821 5818 5815
5909 5909 5909 5909 5908 5906 5904 5903 5900 5899 5897 5896 5894 5891 5889 5886 5883 5880 5877 5874 5870 5867 5864 5861 5858 5856 5853 5850 5848 5845 5842 5839 5837 5834 5832 5829 5826 5823 5820 5817 5814 5811 5808
5904 5903 5903 5903 5902 5901 5899 5897 5895 5893 5892 5890 5888 5886 5884 5881 5879 5876 5872 5869 5865 5862 5859 5856 5854 5851 5848 5845 5843 5840 5837 5834 5831 5829 5826 5823 5820 5817 5814 5811 5808 5804 5801
5897 5897 5896 5896 5896 5895 5893 5891 5891 5888 5886 5885 5883 5881 5879 5876 5873 5870 5867 5863 5859 5856 5854 5851 5848 5845 5842 5840 5837 5834 5831 5829 5826 5823 5820 5817 5814 5810 5807 5804 5800 5797 5793
5890 5890 5890 5889 5889 5889 5887 5886 5885 5883 5881 5879 5877 5875 5873 5870 5867 5864 5861 5857 5854 5851 5848 5845 5842 5840 5837 5834 5831 5828 5825 5822 5819 5816 5813 5810 5807 5803 5800 5797 5793 5790 5786
5883 5883 5883 5883 5882 5882 5881 5880 5878 5877 5875 5873 5871 5868 5866 5863 5861 5857 5855 5851 5847 5845 5841 5839 5836 5833 5831 5828 5825 5822 5819 5816 5813 5809 5806 5803 5800 5796 5793 5789 5786 5782 5779
5876 5876 5876 5876 5875 5873 5873 5872 5871 5869 5867 5866 5863 5861 5858 5856 5853 5850 5848 5845 5842 5838 5836 5833 5830 5827 5824 5821 5818 5815 5812 5809 5806 5802 5799 5796 5793 5789 5786 5782 5778 5775 5772
5867 5868 5868 5867 5867 5866 5865 5864 5863 5861 5859 5857 5855 5853 5850 5848 5845 5843 5840 5837 5834 5831 5828 5826 5823 5820 5817 5814 5811 5808 5805 5801 5798 5795 5792 5789 5785 5782 5778 5775 5771 5767 5764